Vertical_Velocity
3 3 2 2 2 2 2 2 2 2 2 2 2 1 1 1 1 1 0 -1 -1 -0 2 1 2 2 2 2 2 2 1 1 2 2 1 1 1 1 1 1 1 0 0 0 -0 -0 -1 -1 -1 -1 -1 -0 0 0 -0 -1 -0 0 1 0 -0 -0 -0 -0 -0 -0 -0 -0 0 0 0 1 1 0 0 0 0 0 0 0 0 0 0 0 0 -0 -0 -0 0 0 0 -0 -0 -0 -1 -0 -1 -1 -1 -1 -1 -1 -1
3 3 2 2 2 2 2 2 1 1 1 2 2 1 1 1 1 1 0 -1 -1 -0 1 2 3 3 3 2 2 1 1 1 2 2 2 1 0 1 1 1 1 0 0 -0 -0 -1 -1 -1 -1 -0 -1 -0 0 -0 -1 -1 -0 0 1 0 0 -0 -0 -0 0 0 0 0 1 1 1 1 1 1 0 0 0 0 0 0 0 0 0 0 0 0 -0 -0 -0 0 0 -0 -0 -0 -0 -0 -0 -1 -1 -1 -1 -1 -1
2 2 2 2 2 2 2 2 1 1 1 2 2 1 0 0 1 1 0 -0 -1 -0 0 2 3 3 2 2 2 1 1 1 2 2 2 1 1 1 1 1 0 0 -0 -0 -0 -1 -1 -1 -1 -0 -0 -0 -0 -1 -1 -0 0 1 0 0 0 0 0 0 0 0 0 1 1 1 1 1 1 1 1 1 0 0 0 0 0 0 0 0 0 0 -0 -0 0 0 1 1 1 0 -0 -0 -0 -0 -0 -0 -0 -0 -0
2 2 2 2 2 2 2 2 2 2 1 2 1 1 0 -0 0 0 0 -0 0 0 0 2 2 2 0 2 2 2 1 1 2 2 2 1 1 1 1 1 0 0 -0 -0 -0 -0 -1 -0 -1 -1 -1 -1 -1 -1 -0 0 1 0 -0 -0 0 0 0 0 1 1 1 1 1 1 1 1 1 1 1 1 1 1 1 1 0 0 0 1 1 1 0 0 0 0 1 1 1 1 0 0 -0 -0 -0 -0 -0 -0 -0
2 2 1 1 1 2 2 2 2 3 2 1 1 1 1 0 -0 -0 -0 0 1 1 1 2 3 2 -0 1 1 2 1 2 2 2 1 1 1 1 1 1 0 0 0 0 -0 -0 -0 -0 -0 -0 -1 -1 -1 -1 0 1 0 -0 -0 0 0 0 1 1 1 1 1 1 0 1 1 1 1 1 1 1 1 1 1 1 0 0 1 1 0 0 1 1 1 1 0 0 1 1 1 0 0 -0 -0 -0 -0 -0 0
2 2 1 1 1 1 1 1 2 2 4 3 2 1 2 0 -0 -0 -0 0 1 1 1 2 2 3 2 1 1 2 2 2 2 2 2 1 1 1 1 1 1 1 0 0 -0 -0 -0 -0 0 0 -1 -1 -1 -0 1 1 0 -0 -0 0 0 0 1 1 1 0 0 0 0 0 0 0 0 0 0 0 1 1 1 0 0 0 1 1 0 0 0 0 0 1 1 0 1 1 1 1 0 -0 -0 -0 -0 0 0
2 2 1 1 1 1 1 1 1 2 2 4 3 2 2 1 0 -0 -0 0 1 1 1 1 2 3 4 2 2 2 2 2 2 2 2 1 1 2 1 1 1 1 0 -0 -1 -1 -0 0 1 1 -0 -1 -1 -0 1 0 0 -0 0 0 0 0 0 0 0 0 0 0 0 -0 -0 -0 -0 0 0 0 0 0 0 0 0 0 0 0 0 -0 -0 -0 -0 -0 0 0 1 1 1 1 0 0 0 -0 -0 0 0
2 2 2 2 2 2 1 1 1 2 2 2 2 2 2 1 1 -0 -0 0 1 1 1 1 2 3 4 2 2 2 3 2 3 3 2 1 1 2 2 2 1 1 -0 -1 -1 -0 0 1 0 -0 -0 -1 -0 0 1 0 0 -0 0 0 0 -0 0 0 0 0 0 0 -0 -0 -0 -0 -0 0 0 0 0 0 0 0 0 0 -0 -0 -0 -0 -0 -0 -0 -0 -1 -0 0 0 1 0 0 0 0 -0 -0 0 0
2 1 2 2 3 2 1 1 1 1 1 2 2 2 2 1 1 -0 0 1 0 0 1 1 2 3 3 2 2 2 3 3 3 3 2 1 1 2 2 2 1 0 -1 -1 -1 0 1 1 0 -0 -1 -1 -0 1 1 1 0 -0 0 0 0 -0 -0 -0 -0 0 0 0 0 -0 -0 -0 -0 -0 -0 -0 -0 0 0 -0 -0 -0 -0 -0 -0 -0 -0 -0 -0 -0 -0 -0 -0 -0 -0 -0 -0 0 0 -0 -0 0 0
1 1 1 3 3 3 1 1 1 1 1 2 2 1 2 1 1 -0 0 1 0 0 0 1 2 2 3 2 2 2 3 3 3 4 2 1 1 2 2 2 1 -0 -1 -1 -0 1 1 1 1 -0 -1 -1 0 1 2 1 0 0 0 0 0 -0 -0 -0 -0 -0 0 -0 -0 -0 -0 -0 -0 -0 -0 -0 -0 -0 0 0 -0 -0 -0 -0 -0 -0 -0 0 0 0 -0 -0 -0 -0 -0 -0 -0 0 0 -0 -0 0 0
2 2 1 3 4 3 1 1 1 1 3 4 2 1 1 1 1 0 0 0 0 0 -0 0 1 2 2 2 2 2 2 3 4 4 2 1 2 2 2 1 0 -1 -1 -1 0 1 1 1 0 0 -0 -0 1 2 2 1 1 0 1 0 0 0 -0 -0 -0 0 0 -0 -0 -0 -0 -0 -0 -0 -0 -0 -0 -0 -0 0 0 -0 -0 -0 -0 -1 -0 0 0 0 0 -0 -0 -0 -0 -0 -0 0 0 -0 -0 -0 -0
2 2 2 4 4 4 1 1 0 1 5 5 3 1 1 1 1 0 0 1 1 0 -0 0 1 1 2 2 2 2 2 3 4 4 2 2 2 2 2 1 -0 -1 -1 -0 1 1 1 0 -0 -0 -1 0 1 2 2 1 1 1 1 0 0 0 0 0 0 0 0 0 -0 -0 -0 -0 -0 -0 -0 -0 -0 -0 -0 -0 -0 0 0 1 0 -0 -0 0 0 0 0 -0 -0 -0 -0 -0 -0 -0 -0 -0 -0 -0 -0
3 3 3 4 4 4 2 1 1 2 6 5 4 2 1 1 1 1 1 1 1 1 0 0 1 1 1 2 2 2 2 3 4 3 2 2 2 2 1 0 -0 -1 -0 0 1 1 0 -0 -1 -1 -1 0 2 3 1 1 1 0 0 0 0 0 0 0 0 0 0 0 0 0 -0 -0 -0 -0 -0 -0 -0 -0 -0 -0 -0 -0 0 0 1 1 0 0 0 0 -0 -0 -0 -0 -0 -0 -0 -0 0 0 -0 -0 -0
4 4 3 4 5 5 3 1 1 2 6 5 4 2 1 -0 0 1 1 1 1 1 1 1 0 1 1 2 2 2 3 3 4 3 2 2 2 2 1 0 -0 -0 0 1 1 1 -0 -1 -1 -2 -2 0 2 3 0 1 1 0 0 0 0 0 1 1 0 0 0 0 0 0 -0 -0 -0 -0 -1 -1 -0 -0 -0 -0 -0 -0 0 0 0 1 1 0 0 0 -0 -0 -0 -1 -1 -0 -0 -0 0 0 0 0 0
5 4 3 4 5 6 4 2 1 1 3 5 4 3 2 0 0 1 1 1 1 1 1 1 1 1 1 2 2 2 3 3 3 3 3 2 2 1 1 0 0 0 1 1 0 0 -0 -1 -2 -2 -3 -0 2 3 -0 -0 0 0 0 0 0 1 1 1 0 0 0 0 0 0 -0 -0 -0 -0 -1 -1 -0 -0 -0 -0 -0 -0 -0 -0 -0 0 0 0 0 -0 -0 -0 -0 -1 -1 -0 -0 0 0 0 0 0 0
3 3 2 4 5 6 4 3 2 1 1 5 5 4 4 2 1 1 1 1 1 1 1 1 1 1 1 1 2 2 3 3 3 3 3 2 2 1 1 1 1 1 1 0 -0 -0 -1 -1 -2 -2 -3 -1 2 3 -0 -0 -0 0 0 0 1 1 1 0 0 0 1 0 0 -0 -0 -0 -0 -0 -0 -0 -0 -0 -0 -0 -0 -0 -0 -0 -0 -0 0 0 0 -0 -0 -0 -0 -0 -0 -0 0 0 0 0 0 0 0
3 2 2 4 4 5 4 3 2 1 1 4 5 4 4 4 3 1 0 1 1 1 2 1 1 1 0 1 1 2 3 3 2 2 3 2 2 1 1 1 1 1 1 -0 -0 -1 -1 -1 -2 -2 -3 -2 2 4 -1 -1 -0 0 0 1 1 1 0 0 0 1 0 0 0 0 -0 -0 -0 -0 -0 -0 -0 -0 -0 -0 -0 -0 -0 -0 -0 -0 -0 -0 -0 -0 -0 -0 -0 -0 -0 0 0 0 0 0 0 0 0
3 1 2 3 4 4 4 3 2 1 1 2 3 3 2 4 4 2 1 1 1 1 2 1 1 1 0 0 1 2 3 2 2 2 2 2 1 1 1 1 1 1 0 -0 -1 -1 -2 -1 -1 -2 -3 -2 2 4 -1 -1 -0 -0 0 0 0 0 0 0 0 1 0 0 0 0 -0 -0 -0 -0 -0 -0 -0 -0 -0 -0 -0 -0 -0 -0 -0 -0 -0 -0 -0 -0 -0 -0 -0 -0 -0 -0 0 0 0 0 0 0 0
3 2 3 3 3 4 4 3 2 1 2 2 2 2 3 4 4 3 1 1 1 1 1 1 1 1 0 1 2 2 2 2 2 2 2 1 1 1 1 1 1 1 1 -0 -1 -1 -2 -1 -1 -1 -3 -1 2 3 -2 -1 -1 -0 -0 0 0 0 0 0 0 0 -0 0 0 0 -0 -0 -0 -0 -0 -0 -0 -0 -0 -0 -0 -0 -0 -0 -0 0 0 0 0 -0 -0 -0 -0 -0 -0 -0 0 0 0 0 0 0 0
5 3 3 3 3 4 4 3 2 1 2 3 2 2 5 4 4 4 4 2 1 1 1 1 1 1 1 1 2 2 1 2 2 2 2 2 1 1 1 2 2 2 1 0 -1 -2 -2 -1 -1 -1 -3 -0 2 2 -2 -1 -1 -0 -0 0 0 0 0 0 0 -0 -0 0 0 -0 -0 -0 -0 -0 -0 -0 -0 -0 -0 -0 -0 -0 -0 -0 -0 0 0 0 0 0 0 -0 -0 -0 -0 -0 -0 0 0 0 0 0 0
5 4 3 2 3 5 7 3 1 -0 1 3 2 3 5 4 5 7 7 4 2 1 1 1 0 1 1 2 2 1 1 1 2 2 2 2 2 2 2 2 2 2 1 0 -1 -2 -3 -1 -0 -1 -3 0 2 1 -2 -1 -0 -0 -0 -0 -0 0 0 0 -0 -0 -0 -0 0 -0 -0 -0 -0 -0 -0 -0 -0 -0 -0 -0 -0 -0 -0 -0 -0 -0 0 0 0 0 0 0 0 0 -0 -0 -0 -0 0 0 0 0 0
2 3 3 2 4 7 10 3 -1 -2 0 1 2 3 5 5 7 8 7 3 1 0 0 -0 -0 1 2 2 2 1 0 1 1 2 2 3 3 3 3 3 3 2 1 0 -1 -2 -2 -1 -0 -1 -3 1 2 1 -2 -1 -0 -0 -0 -0 -0 -0 -0 -0 -0 -0 -0 -0 -0 -0 -0 -0 -0 -0 0 -0 -0 -0 -0 -0 -0 -0 -0 -0 -0 -0 -0 -0 0 0 0 0 0 0 0 -0 -0 -1 -0 0 0 0 0
1 3 3 2 4 7 9 3 -0 -1 -0 1 2 3 6 7 7 6 5 1 -0 -1 -1 -1 -1 0 2 2 2 1 1 1 1 2 2 3 3 3 4 4 3 2 1 0 -1 -2 -2 -0 -0 -1 -3 1 2 0 -2 -1 -0 -0 -0 -0 -0 -0 -0 -0 -0 -0 -0 -0 -0 -0 -0 -0 -0 0 0 0 0 0 -0 -0 -0 -0 0 -0 -0 -0 -0 -0 0 0 0 0 0 0 0 0 -0 -0 -1 -1 -1 -0 0
2 4 4 2 3 4 5 3 2 1 -0 1 1 1 4 4 4 4 5 1 -0 -1 -1 -1 -1 -0 1 2 2 2 2 2 2 2 2 3 3 3 4 4 4 3 1 0 -1 -2 -2 -0 -0 -1 -3 2 2 -0 -2 -1 -0 -0 -0 -0 -0 -0 -0 -0 -0 -0 -0 -0 -0 -0 -0 -0 -0 0 0 0 0 0 0 -0 -0 -0 -0 -0 -0 -0 -0 -0 0 0 0 0 0 0 0 0 0 0 -0 -1 -1 -1 -0
3 5 3 2 2 2 2 2 3 4 1 1 0 0 2 1 2 3 4 1 -0 -1 -1 -1 -0 0 1 2 2 2 2 2 2 2 3 3 3 4 4 4 4 3 1 0 -1 -1 -1 -0 -0 -1 -2 3 3 -0 -2 -0 -0 -0 -0 -0 -0 -0 -0 -0 -0 -0 -0 -0 -0 -0 -0 -0 -0 -0 -0 -0 -0 -0 -0 -0 -0 -0 -0 -0 -0 0 0 0 0 0 0 0 0 0 0 0 1 1 0 -0 -1 -1 -1
2 4 3 2 2 2 2 2 2 2 1 2 1 1 2 1 2 2 1 0 -1 -1 -1 -0 0 1 2 2 2 2 2 2 2 2 2 3 3 4 5 5 4 2 1 0 -0 -1 -1 -0 -1 -1 -2 4 3 -0 -2 -0 -0 -0 -0 -0 -0 -0 -0 -0 -0 -0 -0 -0 -0 -0 -0 -0 -0 -0 -0 -0 -0 -0 -0 -0 -0 -0 0 0 0 0 0 0 0 0 0 0 0 0 0 1 1 0 0 0 -0 -0 -1
1 3 3 3 2 1 1 1 1 1 2 2 2 2 3 2 1 0 -1 -2 -2 -1 1 1 1 1 2 2 2 1 1 1 2 2 2 2 3 4 6 5 4 2 1 -0 -0 -0 -1 -1 -1 -2 -2 5 3 -1 -1 -0 -0 -0 -0 -0 -0 -0 -0 -0 -0 -0 -0 -0 -0 -0 -0 -0 -0 -0 -0 -0 -0 -0 -0 -0 -0 -0 0 0 0 0 0 0 0 0 0 0 0 0 0 1 0 0 0 0 0 -0 -0
6 1 4 4 3 1 -1 -0 1 2 2 2 2 3 3 3 2 0 -1 -4 -3 -0 2 1 1 1 2 2 1 1 1 1 1 2 1 2 3 4 5 5 4 2 1 0 0 0 -1 -1 -2 -4 -2 5 4 -0 -1 -0 0 -0 -0 -0 -0 -0 -0 -0 -0 -0 -0 -0 -0 -0 -0 -0 -0 -0 -0 -0 -0 -0 -0 -0 -0 -0 -0 -0 0 0 0 0 0 0 0 -0 -0 0 0 0 -0 -0 0 0 0 -0 -0
18 3 3 5 4 1 -2 -1 1 3 2 2 2 2 2 3 2 1 -0 -4 -3 0 2 0 -0 0 2 2 1 -0 -0 -0 1 1 1 1 2 4 5 4 3 2 1 1 1 0 -1 -0 -3 -5 -3 5 5 0 -1 0 0 -0 -0 -0 -0 -0 -0 -0 -0 -0 -0 -0 -0 -0 -0 -0 -0 -0 -0 -0 -0 -0 -0 -0 -0 -0 -0 -0 -0 0 0 0 0 0 0 -0 -0 -0 0 0 -0 -0 -0 -0 -0 -0 -0
33 11 2 3 3 1 -2 -0 2 3 3 2 2 1 2 3 2 0 -0 -4 -2 1 2 0 -0 0 2 2 1 -1 -1 -1 -0 0 1 1 2 4 5 4 3 2 1 1 1 1 -0 -0 -3 -6 -4 6 6 1 -1 0 0 -0 -0 -0 -0 -0 -0 -0 -0 -0 -0 -0 -0 -0 -0 -0 -0 -0 -0 -0 -0 -0 -0 -0 -0 -0 -0 -0 -0 -0 -0 -0 0 0 0 -0 -0 -0 -0 -0 0 0 -0 -0 -0 -0 -0
42 28 8 7 8 6 1 2 3 4 3 2 1 1 2 2 1 -0 -2 -3 -1 1 2 -0 -1 0 3 2 1 -1 -1 -1 -1 -0 1 1 2 4 4 4 3 2 1 1 1 1 0 0 -4 -7 -4 6 6 2 -1 0 0 -0 -0 -0 -0 -0 -0 -0 -0 -0 -0 -0 -0 -0 -0 -0 -0 -0 0 0 -0 -0 -0 -0 -0 -0 -0 -0 -0 -0 -0 -0 -0 -0 -0 -0 -0 -0 -1 -0 -0 -0 -1 -0 -0 -0 -0
37 36 24 18 15 10 2 3 4 4 3 2 1 1 2 2 1 -1 -2 -1 -1 0 1 -0 -0 0 3 3 2 0 -0 -1 -1 -1 1 1 2 4 4 4 3 2 1 1 1 1 0 -0 -5 -8 -5 6 7 3 -1 0 0 -0 -0 -0 -0 -0 -0 -0 -0 -0 -0 -0 -0 -0 -0 -0 -0 -0 0 0 -0 -0 -0 -0 -0 -0 -0 -0 -1 -1 -1 -1 -1 -0 -0 -0 -0 -1 -1 -1 -1 -0 -0 -0 -0 -0 0
28 32 35 27 17 8 -1 2 4 5 4 2 0 -1 0 2 1 -1 -2 -1 -0 1 3 1 -0 -0 2 3 3 2 0 -2 -2 -1 1 2 2 3 4 4 3 2 1 1 1 -0 -0 -1 -5 -8 -5 5 7 4 -1 -0 0 -0 -0 -0 -0 -0 -0 -0 -0 -0 -0 -0 -0 -0 -0 -0 -0 -0 0 0 -0 -0 -0 -0 -0 -0 -0 -1 -1 -1 -1 -1 -1 -1 -1 -1 -1 -1 -1 -1 -1 -1 -1 -1 -0 -0 0
21 31 45 41 28 13 2 1 4 6 6 4 0 -2 -3 0 1 0 -0 -1 -0 1 2 1 2 3 3 3 3 2 1 -2 -2 -1 0 2 3 4 4 4 3 2 1 1 -0 -1 -1 -2 -6 -8 -5 5 7 5 -1 -0 0 0 0 0 0 -0 -0 -0 -0 -0 -0 -0 -0 -0 -0 -0 -0 -0 -0 -0 -0 -0 -1 -0 -0 -0 -0 -1 -1 -1 -1 -1 -1 -1 -1 -1 -1 -1 -1 -1 -1 -1 -1 -1 -1 -0 0
8 22 46 52 39 21 11 5 5 7 8 5 2 -1 -4 -2 0 2 2 2 1 1 1 2 4 6 5 2 2 2 0 -1 -1 -1 0 1 3 4 4 4 3 3 1 0 -0 -1 -0 -2 -6 -8 -5 5 8 5 -1 -0 0 1 1 0 0 -0 -0 -0 -0 -0 -0 -0 0 -0 -0 -0 -0 -0 -0 -0 -0 -0 -0 -0 -0 -0 -0 -1 -1 -1 -1 -1 -1 -1 -1 -1 -1 -1 -1 -1 -1 -1 -1 -1 -1 -0 1
-6 8 39 61 50 27 15 10 8 8 9 7 4 2 -2 4 8 10 8 5 2 1 2 3 3 3 2 1 1 0 -1 -1 -0 0 0 2 3 4 4 4 4 3 1 0 -1 -1 -0 -2 -6 -8 -5 5 8 5 -0 -0 1 1 1 0 0 -0 -0 0 0 0 0 0 0 0 0 0 -0 -0 -0 -0 0 0 -0 -0 -0 -0 -0 -1 -1 -1 -1 -1 -0 -1 -1 -1 -1 -1 -1 -1 -1 -1 -1 -2 -1 -0 0
-19 -8 24 61 59 37 11 14 13 11 10 8 6 4 6 14 18 16 9 5 2 1 2 3 2 1 -0 -0 -0 -1 -2 -0 0 1 1 2 3 4 4 4 4 4 2 -0 -1 -1 -0 -3 -6 -8 -5 4 7 6 0 0 1 1 1 0 0 -0 0 0 0 0 0 0 0 0 0 0 -0 -0 -0 -0 0 1 0 0 0 -0 -1 -1 -1 -1 -0 -0 -0 -1 -1 -1 -1 -1 -1 -1 -1 -1 -2 -2 -1 -0 0
-24 -17 8 53 64 48 12 15 16 16 12 10 6 6 14 18 15 8 0 0 0 0 1 2 1 1 0 1 -0 -1 -1 0 1 1 2 3 4 4 3 3 3 2 0 -1 -1 -1 -0 -3 -7 -8 -5 4 8 7 2 1 1 1 1 0 0 0 0 0 0 0 0 0 0 0 0 0 0 -0 -0 -0 0 1 1 1 1 0 -0 -0 -0 0 0 -0 -0 -1 -1 -1 -1 -1 -1 -1 -1 -1 -1 -2 -1 -0 -0
-27 -24 -10 39 62 56 18 14 14 16 13 11 6 6 17 17 11 2 -4 -1 0 1 1 1 2 2 2 2 1 1 1 1 2 3 4 3 2 1 1 1 0 -1 -2 -2 -2 -1 -1 -4 -6 -7 -4 3 8 8 4 2 1 1 1 1 0 0 0 0 0 0 0 0 0 0 0 0 -0 -0 -0 -0 0 1 1 1 1 0 -0 -0 0 1 1 0 0 -0 -0 -0 -1 -1 -1 -1 -1 -1 -1 -1 -1 -0 -0
-39 -39 -32 14 50 60 31 19 15 14 12 10 7 7 13 14 9 2 -0 1 2 2 0 1 2 3 2 2 3 3 1 1 2 3 4 2 1 -1 -1 -2 -2 -2 -2 -2 -1 -1 -2 -4 -5 -6 -4 3 8 10 6 2 1 1 1 1 0 0 0 1 1 1 1 1 0 0 0 -0 -0 -0 -1 -0 -0 0 1 1 1 0 -0 0 1 1 1 1 0 0 0 -0 -0 -1 -1 -1 -1 -1 -1 -1 -0 -0 -0
-40 -47 -51 -18 23 51 49 31 18 10 8 11 10 8 8 8 5 2 1 3 3 3 0 1 1 2 2 3 4 4 1 1 2 3 3 1 -0 -1 -1 -1 -1 -0 0 0 -0 -0 -1 -2 -4 -4 -3 3 9 11 7 3 1 0 0 0 0 0 1 1 1 1 1 1 0 0 0 -0 -0 -1 -1 -1 -0 0 1 1 0 -0 -1 -0 0 1 1 1 0 -0 -0 -0 -0 -0 -0 -1 -1 -1 -1 -1 -1 -0 -0
-29 -37 -51 -41 -10 25 49 38 21 7 4 10 11 10 6 4 2 2 2 3 3 2 1 1 1 1 1 3 4 4 2 1 1 3 3 1 -0 -0 0 1 2 3 2 2 1 1 1 -0 -1 -2 -2 4 8 10 7 4 2 0 -0 -0 -0 0 1 1 1 1 1 1 1 0 0 -0 -0 -1 -1 -1 -0 0 0 0 -0 -1 -1 -1 -0 -0 0 0 -0 -1 -1 -0 0 1 1 -0 -1 -1 -1 -1 -1 -0 -0
-18 -24 -36 -45 -34 -8 26 36 26 10 3 6 10 11 6 3 2 2 3 3 2 1 1 1 1 1 1 2 3 3 2 1 2 3 3 2 1 2 2 4 4 4 3 2 2 2 2 2 1 0 -0 4 7 8 6 5 3 1 -1 -1 -0 1 2 2 1 1 1 1 1 0 0 -0 -0 -1 -1 -1 -0 0 0 0 -0 -1 -1 -1 -1 -1 -0 -0 -1 -2 -2 -1 0 1 1 0 -0 -0 -0 -1 -1 -1 -0
-13 -16 -21 -34 -40 -34 -12 15 21 15 5 4 8 10 6 2 1 2 2 2 2 2 2 1 1 1 0 1 1 1 1 1 2 4 4 4 4 4 4 5 5 5 4 3 2 2 3 3 2 1 2 4 5 5 5 5 3 1 -1 -1 0 2 3 2 2 1 2 1 1 0 0 -0 -1 -1 -1 -0 -0 0 0 0 -0 -1 -1 -1 -1 -1 -0 -1 -2 -2 -2 -1 -0 0 1 1 0 0 0 -0 -1 -1 -1
-9 -10 -11 -18 -29 -38 -39 -22 -7 1 -1 -3 1 5 4 1 0 0 1 1 1 2 2 1 0 0 -0 0 0 0 0 2 4 6 6 6 6 6 5 5 5 5 4 3 2 2 3 2 2 2 2 3 3 3 3 4 3 2 1 1 1 2 2 1 2 2 3 2 1 0 -0 -0 -1 -1 -0 -0 0 0 0 -0 -0 -1 -1 -1 -0 -0 -0 -2 -2 -2 -2 -1 -1 -0 -0 -0 -0 0 0 -0 -0 -1 -1
-5 -6 -4 -6 -13 -22 -33 -37 -34 -28 -24 -20 -14 -6 -2 -1 -1 -1 -0 -1 -0 0 0 -1 -0 0 1 1 1 2 1 3 6 8 8 8 8 7 5 4 4 4 3 2 1 2 2 2 2 2 2 2 2 1 1 2 2 2 3 2 2 2 1 1 1 3 4 3 2 0 -0 -1 -1 -1 -0 1 1 1 0 -0 -1 -1 -1 -0 0 0 -1 -1 -1 -1 -1 -2 -1 -1 -1 -1 -1 -0 -0 -0 -0 -0 -0
-2 -3 -3 -2 -4 -8 -15 -24 -29 -30 -29 -28 -25 -20 -12 -6 -3 -2 -2 -2 -2 -2 -2 -2 -1 0 1 2 2 3 2 4 6 8 8 8 8 7 4 2 2 2 2 1 1 2 2 2 3 3 2 2 1 0 -0 0 2 3 4 3 3 3 1 -0 1 2 4 4 3 1 -1 -1 -1 -1 0 1 1 1 0 -0 -1 -1 -1 0 1 1 -1 -1 -1 -0 -0 -1 -1 -1 1 0 -0 -1 -1 -1 -0 1 2
-0 -2 -3 -2 -2 -3 -6 -11 -14 -14 -12 -12 -15 -19 -19 -10 -4 -2 -2 -3 -3 -3 -2 -1 -0 1 2 3 3 2 2 4 6 7 6 6 5 4 1 1 1 1 1 1 1 1 2 3 3 3 2 1 0 -1 -1 0 2 3 3 4 4 3 1 -0 -0 1 4 5 4 2 -0 -1 -1 -0 1 1 1 1 0 -0 -1 -1 -1 0 1 1 -0 -1 -1 0 1 -1 -1 -0 2 2 1 0 -1 -0 1 2 3
1 0 -1 -2 -3 -3 -4 -6 -7 -8 -7 -3 -3 -6 -11 -6 -3 -1 -1 -2 -2 -1 -0 0 1 1 2 3 3 3 3 4 5 5 4 4 2 1 -0 1 1 1 0 1 1 1 2 3 3 2 2 0 -0 -1 -0 1 2 3 3 4 4 3 1 -0 -1 -0 3 5 5 3 0 -1 -1 -0 1 1 1 1 0 -0 -1 -1 -1 0 1 2 1 -1 -1 -0 1 -0 -2 -2 0 2 2 2 1 0 1 2 3
4 2 2 -0 -2 -4 -4 -4 -5 -5 -5 -2 0 2 3 2 0 -1 -1 -1 -2 -2 -0 -0 0 1 2 3 3 4 5 5 4 3 2 -0 -1 -1 -1 -1 -1 -0 1 1 2 2 2 3 2 1 0 -0 -1 -0 1 2 2 2 3 4 3 2 1 -0 -1 -1 2 4 4 3 1 -0 -1 0 1 1 1 0 0 -0 -1 -1 -1 -0 1 1 0 -2 -2 -1 1 0 -1 -3 -2 -0 1 1 2 1 0 1 2
7 4 4 2 -0 -2 -3 -3 -3 -3 -2 -1 3 8 10 4 0 -2 -3 -3 -4 -5 -4 -2 -2 -1 2 3 4 4 7 4 2 1 -0 -3 -3 -0 -0 -1 1 3 3 3 4 4 3 4 2 0 -0 -0 0 1 1 1 2 2 2 2 2 2 1 -0 -1 -0 2 2 2 2 1 -0 -0 0 2 2 1 0 -0 -1 -1 -1 -1 0 1 1 0 -2 -4 -3 -1 1 1 -1 -3 -1 -1 -0 1 2 1 1 1
9 7 5 4 3 1 0 -1 -2 -2 -1 0 5 9 11 6 1 -3 -5 -6 -8 -10 -8 -5 -3 -2 1 4 4 5 6 2 1 -0 -1 -1 1 4 5 8 8 7 2 6 6 5 6 5 2 0 1 0 1 1 1 1 1 1 1 2 2 1 0 -0 0 1 2 2 1 0 -0 -0 0 1 2 2 2 1 -0 -1 -1 -1 -1 -1 -0 1 1 -2 -4 -5 -4 -0 2 2 -0 -1 -1 -0 0 1 1 1 1
10 9 8 6 5 5 3 2 0 -0 -0 1 2 3 6 10 6 0 -5 -6 -8 -10 -10 -6 -3 -1 1 3 3 2 1 -0 -1 -0 2 3 5 6 7 8 5 1 -2 4 5 3 5 3 1 1 0 0 0 0 -0 1 1 0 1 1 1 0 0 1 2 2 3 2 0 -0 -0 -0 0 0 1 1 2 1 0 -1 -1 -0 -0 -1 -1 -1 1 -1 -3 -4 -5 -3 -1 1 2 1 0 0 0 1 1 2 1
9 10 10 8 7 6 5 3 2 1 1 1 0 1 2 10 9 4 -2 -4 -7 -8 -7 -5 -1 2 3 2 1 -0 -2 -2 -1 -0 1 -0 1 2 1 -1 -2 0 5 9 7 1 -5 -3 -1 -0 -4 -1 0 0 -0 1 0 -0 1 0 -0 -0 1 2 3 4 4 2 1 0 -0 -0 -0 0 0 1 2 2 1 -1 -1 0 0 -1 -2 -2 -0 0 -1 -3 -4 -4 -3 -2 0 1 1 1 1 1 1 1 0
8 10 11 10 8 6 6 4 3 1 0 -0 -0 0 2 8 9 7 1 -2 -5 -5 -2 0 3 6 6 3 0 -1 -2 -2 -2 -1 -1 -3 -3 -2 -0 4 10 13 10 10 5 -3 -8 -1 2 1 -3 0 2 2 0 1 0 -0 1 -1 -1 -0 2 3 4 4 3 1 1 1 1 -0 -0 -0 -0 -0 -2 -4 -6 -4 -2 -1 0 -1 -2 -2 -1 0 0 -1 -2 -3 -2 -2 -1 -0 -0 0 0 0 0 0 0
6 8 10 10 8 6 5 4 3 1 -0 -1 -1 1 7 9 10 10 7 2 -1 -0 3 5 8 10 10 7 4 0 -1 -1 -1 -0 -1 -3 -3 -0 4 10 10 7 -1 -4 -7 -7 1 4 7 6 -2 -0 3 3 -2 -0 0 0 -1 -1 -1 -0 2 4 4 4 2 1 2 2 1 1 -0 -1 -1 -1 -3 -6 -8 -7 -5 -3 -0 -1 -2 -2 -1 -0 0 1 -0 -1 -1 -1 -0 -0 -0 -0 -0 -0 -0 0 1
2 4 6 6 6 5 3 3 3 2 -0 -1 -1 1 7 13 16 16 13 8 4 1 -0 2 5 9 12 12 9 5 1 -0 -1 -1 -0 -2 -0 2 6 5 2 -3 -9 -10 -5 2 6 3 6 5 -9 -3 2 3 -3 -0 0 -0 -0 -1 -1 0 3 4 4 2 1 0 1 2 2 1 -0 -1 -1 -0 -1 -1 -1 -3 -3 -2 -0 -1 -2 -2 -2 -1 0 1 1 0 0 0 0 0 -0 -0 0 -0 -0 0 1
-1 0 2 4 4 3 1 2 2 3 2 1 -1 -1 3 11 18 22 22 19 14 7 1 2 4 7 10 14 14 10 4 0 -1 -1 -0 -0 1 2 4 4 4 4 4 5 11 14 8 3 1 -1 -9 -1 2 2 1 1 -0 -1 -0 -2 -1 1 4 4 4 2 -0 -0 1 2 2 1 -0 -1 -1 0 1 1 1 -0 -0 -0 -0 -1 -2 -3 -3 -1 -0 1 1 1 1 1 1 0 0 -0 -0 -0 -0 0 1
-1 -0 1 4 6 7 6 5 4 3 3 2 -0 -1 -1 2 8 14 22 25 24 20 16 17 20 22 21 23 20 14 4 -1 -2 -0 1 1 -1 -1 2 4 6 6 5 7 10 12 5 -1 -3 -1 0 2 0 -2 1 -0 -1 -2 -0 -1 -0 2 5 5 4 1 -0 -1 0 2 2 0 -0 -0 0 1 2 2 1 1 1 0 -0 -2 -2 -3 -3 -1 -0 1 1 2 2 2 1 1 0 0 0 -0 -0 0 1
0 -0 1 4 7 9 10 10 9 8 6 4 2 -0 -2 -2 -2 1 8 17 20 21 21 26 30 34 36 37 31 20 4 -2 -2 1 4 0 -2 -2 1 3 3 2 1 2 4 4 -1 -5 -3 1 1 -2 -2 -0 1 -1 -1 -0 1 -0 1 3 6 6 4 2 -0 -1 -0 1 2 1 0 1 2 3 4 4 3 2 1 0 -1 -1 -2 -3 -3 -1 -0 1 1 1 2 2 2 1 0 0 0 0 0 0 1
3 2 2 4 6 8 10 12 13 14 12 11 8 6 4 2 -0 -0 1 4 7 11 16 24 28 30 32 37 35 24 4 -5 -5 -0 3 1 -1 -1 1 2 2 1 1 2 3 1 -3 -4 -2 -1 -4 -3 0 3 1 -1 -0 1 1 -1 1 4 6 5 4 2 -0 -1 -1 0 1 1 1 2 3 5 5 5 5 3 2 0 -1 -1 -1 -2 -2 -1 -1 -0 0 1 2 2 2 1 1 1 1 1 0 0 0
Height
3129 3130 3132 3133 3134 3135 3136 3137 3138 3139 3140 3141 3142 3142 3143 3144 3145 3146 3146 3147 3148 3150 3151 3153 3154 3155 3156 3156 3157 3158 3159 3159 3160 3161 3161 3161 3161 3162 3162 3162 3163 3163 3163 3163 3163 3163 3164 3164 3164 3165 3165 3166 3167 3168 3168 3169 3169 3170 3170 3171 3171 3171 3172 3172 3173 3173 3174 3174 3175 3176 3176 3176 3177 3177 3177 3178 3178 3178 3179 3179 3179 3180 3180 3181 3181 3181 3181 3182 3182 3182 3183 3183 3184 3184 3184 3184 3184 3185 3185 3185 3185 3185 3186
3127 3129 3130 3131 3133 3134 3135 3136 3137 3138 3139 3140 3141 3141 3142 3143 3144 3145 3146 3146 3147 3149 3151 3152 3153 3154 3155 3156 3156 3157 3158 3159 3160 3160 3161 3161 3161 3161 3162 3162 3162 3163 3163 3163 3163 3163 3163 3164 3164 3165 3165 3166 3167 3167 3168 3168 3169 3170 3170 3171 3171 3171 3172 3172 3173 3173 3174 3174 3175 3175 3176 3176 3176 3177 3177 3177 3178 3178 3179 3179 3179 3180 3180 3180 3181 3181 3181 3181 3182 3182 3183 3183 3183 3184 3184 3184 3184 3184 3184 3185 3185 3185 3186
3126 3127 3129 3130 3131 3133 3134 3135 3136 3137 3138 3139 3140 3140 3141 3142 3143 3144 3145 3145 3146 3148 3149 3150 3151 3153 3154 3155 3156 3156 3157 3158 3159 3159 3160 3160 3161 3161 3161 3162 3162 3162 3162 3163 3163 3163 3163 3163 3164 3164 3165 3166 3166 3167 3167 3168 3169 3170 3170 3170 3171 3171 3172 3172 3173 3173 3174 3174 3175 3175 3176 3176 3176 3177 3177 3177 3178 3178 3178 3179 3179 3180 3180 3180 3181 3181 3181 3181 3182 3182 3183 3183 3183 3183 3183 3184 3184 3184 3184 3185 3185 3185 3186
3125 3126 3127 3129 3130 3131 3133 3134 3135 3136 3136 3138 3139 3139 3140 3141 3141 3143 3143 3144 3146 3146 3148 3149 3151 3151 3152 3154 3155 3156 3156 3157 3158 3159 3159 3160 3160 3161 3161 3161 3161 3162 3162 3162 3162 3163 3163 3163 3163 3164 3165 3166 3166 3166 3167 3168 3169 3169 3170 3170 3171 3171 3171 3172 3172 3173 3173 3174 3174 3175 3175 3176 3176 3176 3177 3177 3177 3178 3178 3179 3179 3179 3180 3180 3181 3181 3181 3181 3182 3182 3182 3183 3183 3183 3183 3183 3184 3184 3184 3184 3185 3185 3185
3123 3124 3126 3127 3129 3130 3131 3133 3134 3135 3136 3136 3137 3138 3139 3140 3141 3141 3142 3144 3145 3146 3147 3148 3150 3151 3151 3152 3153 3155 3156 3156 3157 3158 3159 3159 3160 3160 3161 3161 3161 3161 3162 3162 3162 3162 3163 3163 3163 3164 3164 3165 3165 3166 3167 3168 3168 3169 3169 3170 3171 3171 3171 3172 3172 3173 3173 3174 3174 3175 3175 3175 3176 3176 3176 3177 3177 3177 3178 3178 3179 3179 3180 3180 3180 3181 3181 3181 3181 3182 3182 3182 3183 3183 3183 3183 3183 3184 3184 3184 3185 3185 3185
3121 3123 3124 3126 3127 3129 3130 3131 3133 3134 3135 3136 3136 3137 3138 3139 3140 3141 3141 3143 3144 3145 3146 3147 3149 3149 3150 3151 3152 3154 3155 3156 3156 3157 3158 3158 3159 3160 3160 3160 3161 3161 3161 3162 3162 3162 3162 3162 3163 3163 3164 3164 3165 3166 3166 3167 3168 3168 3169 3170 3170 3171 3171 3171 3172 3172 3173 3173 3174 3174 3175 3175 3175 3176 3176 3176 3177 3177 3178 3178 3178 3179 3179 3180 3180 3180 3181 3181 3181 3182 3182 3182 3183 3183 3183 3183 3183 3184 3184 3184 3185 3185 3185
3120 3121 3123 3124 3126 3127 3128 3130 3131 3133 3133 3135 3135 3136 3137 3138 3138 3139 3141 3142 3143 3144 3145 3146 3148 3149 3149 3150 3151 3153 3154 3155 3156 3156 3157 3158 3158 3159 3160 3160 3160 3161 3161 3161 3161 3162 3162 3162 3163 3163 3163 3164 3164 3165 3166 3167 3167 3168 3169 3169 3170 3170 3171 3171 3171 3172 3172 3173 3173 3174 3174 3175 3175 3175 3176 3176 3176 3177 3177 3178 3178 3178 3179 3179 3180 3180 3180 3181 3181 3181 3182 3182 3182 3183 3183 3183 3183 3184 3184 3184 3185 3185 3185
3118 3120 3121 3123 3125 3126 3127 3128 3130 3131 3132 3133 3134 3135 3136 3136 3137 3138 3140 3141 3142 3143 3144 3145 3146 3148 3149 3150 3151 3152 3153 3154 3155 3156 3156 3157 3158 3158 3159 3160 3160 3160 3161 3161 3161 3161 3162 3162 3162 3162 3163 3163 3164 3165 3166 3166 3167 3167 3168 3169 3169 3170 3170 3171 3171 3171 3172 3172 3173 3173 3174 3174 3175 3175 3175 3176 3176 3176 3177 3177 3178 3178 3179 3179 3179 3180 3180 3180 3181 3181 3181 3181 3182 3182 3183 3183 3183 3184 3184 3184 3184 3185 3185
3117 3118 3120 3121 3123 3125 3126 3127 3128 3130 3131 3132 3133 3134 3135 3135 3136 3137 3138 3140 3141 3142 3143 3144 3145 3147 3148 3149 3150 3151 3152 3153 3155 3155 3156 3156 3157 3158 3158 3159 3159 3160 3160 3160 3161 3161 3162 3162 3162 3162 3162 3163 3164 3164 3165 3166 3166 3167 3168 3168 3169 3169 3170 3170 3171 3171 3171 3172 3172 3173 3173 3174 3174 3175 3175 3175 3176 3176 3176 3177 3177 3178 3178 3179 3179 3179 3180 3180 3181 3181 3181 3181 3181 3182 3182 3182 3183 3183 3184 3184 3184 3185 3185
3115 3116 3118 3120 3121 3123 3124 3126 3127 3128 3130 3131 3132 3133 3134 3134 3135 3136 3137 3138 3140 3141 3142 3143 3144 3146 3146 3148 3149 3150 3151 3152 3154 3155 3155 3156 3156 3157 3158 3158 3159 3159 3159 3160 3161 3161 3161 3162 3162 3162 3162 3162 3163 3164 3165 3166 3166 3166 3167 3168 3168 3169 3169 3170 3170 3171 3171 3171 3172 3172 3173 3173 3174 3174 3175 3175 3175 3176 3176 3177 3177 3177 3178 3178 3179 3179 3179 3180 3180 3180 3181 3181 3181 3181 3182 3182 3182 3183 3183 3184 3184 3184 3185
3114 3115 3116 3118 3120 3121 3123 3124 3126 3127 3129 3130 3131 3132 3133 3133 3134 3135 3136 3137 3138 3140 3141 3142 3143 3144 3146 3147 3148 3149 3150 3151 3153 3154 3154 3155 3156 3156 3157 3157 3158 3158 3159 3159 3160 3161 3161 3161 3162 3162 3162 3162 3163 3164 3165 3165 3166 3166 3167 3167 3168 3168 3169 3169 3170 3170 3171 3171 3171 3172 3172 3173 3173 3174 3174 3175 3175 3176 3176 3176 3177 3177 3177 3178 3178 3178 3179 3179 3180 3180 3180 3181 3181 3181 3181 3181 3182 3182 3183 3183 3183 3184 3184
3112 3113 3115 3117 3119 3120 3121 3122 3124 3126 3127 3129 3130 3130 3131 3132 3133 3134 3135 3136 3137 3138 3139 3141 3142 3143 3144 3146 3147 3148 3149 3151 3152 3153 3153 3154 3155 3156 3156 3156 3157 3157 3158 3159 3160 3161 3161 3161 3161 3161 3162 3162 3163 3164 3164 3165 3165 3166 3166 3167 3167 3168 3168 3169 3169 3170 3170 3171 3171 3171 3172 3172 3173 3173 3174 3174 3175 3175 3176 3176 3176 3177 3177 3178 3178 3178 3178 3179 3179 3180 3180 3180 3180 3181 3181 3181 3181 3182 3182 3183 3183 3183 3184
3110 3112 3114 3115 3117 3119 3120 3121 3122 3124 3126 3127 3128 3129 3130 3131 3131 3132 3133 3135 3136 3137 3138 3139 3141 3142 3143 3144 3146 3147 3148 3150 3151 3151 3152 3153 3154 3155 3155 3156 3156 3157 3158 3159 3159 3160 3160 3161 3161 3161 3161 3162 3162 3163 3164 3164 3165 3165 3166 3166 3167 3167 3168 3168 3169 3169 3170 3170 3171 3171 3171 3172 3172 3173 3173 3174 3174 3175 3175 3176 3176 3176 3177 3177 3178 3178 3178 3178 3179 3179 3179 3180 3180 3180 3180 3181 3181 3181 3182 3182 3182 3183 3183
3108 3110 3112 3114 3116 3117 3118 3120 3121 3122 3124 3126 3127 3128 3129 3130 3131 3131 3132 3133 3135 3136 3137 3138 3139 3141 3142 3143 3145 3146 3147 3148 3150 3151 3151 3152 3153 3154 3154 3155 3156 3156 3157 3158 3159 3159 3160 3160 3160 3160 3161 3161 3162 3163 3163 3164 3164 3165 3165 3166 3166 3167 3167 3168 3168 3169 3169 3170 3170 3171 3171 3171 3172 3172 3173 3173 3174 3174 3175 3175 3175 3176 3176 3177 3177 3177 3178 3178 3178 3178 3179 3179 3179 3179 3180 3180 3181 3181 3181 3181 3182 3182 3182
3106 3108 3110 3112 3114 3116 3117 3118 3119 3121 3122 3124 3126 3126 3127 3128 3129 3130 3131 3132 3133 3134 3136 3137 3138 3139 3141 3142 3143 3145 3146 3147 3148 3149 3150 3151 3152 3153 3153 3154 3155 3156 3156 3157 3158 3158 3159 3159 3160 3160 3160 3161 3162 3162 3162 3163 3164 3164 3165 3165 3166 3166 3167 3167 3168 3168 3169 3169 3170 3170 3171 3171 3172 3172 3172 3173 3173 3174 3174 3175 3175 3175 3176 3176 3176 3177 3177 3177 3178 3178 3178 3178 3179 3179 3179 3180 3180 3181 3181 3181 3181 3182 3182
3104 3106 3108 3110 3112 3114 3115 3116 3118 3119 3121 3122 3124 3125 3126 3127 3128 3129 3130 3131 3132 3133 3134 3136 3137 3138 3139 3141 3142 3143 3145 3146 3147 3148 3149 3150 3151 3152 3152 3153 3154 3155 3156 3156 3157 3158 3158 3159 3159 3159 3160 3160 3161 3162 3162 3162 3163 3163 3164 3165 3165 3166 3166 3167 3167 3168 3168 3169 3169 3170 3170 3171 3171 3172 3172 3172 3173 3173 3174 3174 3174 3175 3175 3176 3176 3176 3176 3177 3177 3177 3178 3178 3178 3179 3179 3179 3180 3180 3181 3181 3181 3181 3181
3102 3104 3106 3109 3111 3112 3114 3115 3116 3117 3119 3121 3122 3123 3125 3126 3127 3127 3128 3130 3131 3132 3133 3134 3136 3137 3138 3139 3141 3142 3143 3145 3146 3147 3148 3149 3150 3151 3151 3152 3153 3154 3155 3156 3156 3157 3157 3158 3158 3159 3159 3160 3161 3161 3161 3162 3162 3163 3163 3164 3165 3165 3166 3166 3166 3167 3168 3168 3169 3169 3170 3170 3171 3171 3172 3172 3172 3173 3173 3174 3174 3174 3175 3175 3175 3176 3176 3176 3176 3177 3177 3177 3178 3178 3178 3179 3179 3180 3180 3180 3181 3181 3181
3101 3103 3105 3107 3109 3111 3112 3113 3115 3116 3117 3119 3121 3122 3123 3124 3126 3126 3127 3128 3129 3130 3132 3133 3134 3135 3137 3138 3139 3141 3142 3143 3145 3146 3147 3148 3149 3150 3151 3151 3152 3153 3154 3155 3156 3156 3157 3157 3158 3158 3159 3159 3160 3161 3161 3161 3161 3162 3163 3163 3164 3164 3165 3166 3166 3166 3167 3168 3168 3169 3169 3170 3170 3171 3171 3172 3172 3172 3173 3173 3173 3174 3174 3174 3175 3175 3176 3176 3176 3176 3177 3177 3177 3177 3178 3178 3179 3179 3179 3180 3180 3180 3181
3099 3101 3103 3105 3107 3109 3111 3112 3113 3114 3116 3117 3119 3120 3121 3123 3124 3125 3126 3127 3128 3129 3130 3131 3133 3134 3135 3137 3138 3139 3141 3142 3143 3145 3146 3146 3147 3148 3149 3151 3151 3152 3153 3154 3155 3155 3156 3157 3157 3158 3158 3159 3160 3160 3160 3160 3161 3161 3162 3163 3163 3164 3164 3165 3166 3166 3166 3167 3168 3168 3169 3169 3170 3170 3171 3171 3171 3172 3172 3172 3173 3173 3173 3174 3174 3175 3175 3175 3176 3176 3176 3176 3177 3177 3177 3178 3178 3178 3179 3179 3179 3180 3180
3097 3100 3102 3104 3106 3107 3109 3110 3111 3112 3114 3116 3117 3118 3120 3121 3123 3124 3125 3125 3126 3127 3129 3130 3131 3132 3134 3135 3137 3138 3139 3141 3142 3143 3144 3146 3146 3147 3148 3150 3151 3151 3152 3153 3154 3154 3155 3156 3157 3157 3158 3158 3159 3160 3159 3160 3160 3161 3161 3162 3163 3163 3164 3164 3165 3165 3166 3166 3167 3167 3168 3169 3169 3170 3170 3171 3171 3171 3171 3172 3172 3172 3173 3173 3173 3174 3174 3175 3175 3175 3176 3176 3176 3176 3177 3177 3177 3178 3178 3178 3179 3179 3179
3095 3098 3100 3101 3104 3106 3107 3108 3109 3111 3112 3114 3115 3116 3119 3120 3121 3122 3123 3124 3125 3126 3127 3128 3130 3131 3132 3134 3135 3136 3138 3139 3141 3142 3143 3144 3146 3146 3148 3149 3150 3150 3151 3152 3153 3153 3154 3155 3156 3156 3157 3158 3159 3159 3159 3159 3160 3161 3161 3161 3162 3163 3163 3164 3164 3165 3165 3166 3166 3167 3167 3168 3168 3169 3169 3170 3170 3171 3171 3171 3171 3172 3172 3172 3173 3173 3174 3174 3174 3175 3175 3176 3176 3176 3176 3176 3177 3177 3177 3178 3178 3178 3179
3094 3096 3098 3100 3102 3104 3105 3106 3107 3108 3110 3112 3113 3115 3117 3117 3119 3121 3122 3122 3123 3124 3125 3126 3128 3130 3131 3132 3134 3135 3136 3138 3139 3141 3142 3143 3145 3146 3147 3148 3149 3149 3150 3151 3152 3152 3153 3154 3155 3156 3156 3157 3158 3158 3158 3159 3159 3160 3161 3161 3161 3162 3163 3163 3164 3164 3165 3165 3166 3166 3167 3167 3168 3168 3169 3169 3170 3170 3170 3171 3171 3171 3171 3172 3172 3173 3173 3173 3174 3174 3175 3175 3175 3176 3176 3176 3176 3176 3176 3177 3177 3178 3178
3092 3094 3096 3098 3100 3102 3104 3104 3105 3107 3109 3110 3112 3114 3116 3116 3117 3118 3120 3121 3121 3122 3124 3125 3126 3128 3130 3131 3132 3134 3135 3136 3138 3139 3141 3142 3143 3145 3146 3147 3147 3148 3149 3150 3151 3151 3152 3153 3154 3155 3156 3157 3157 3157 3158 3158 3159 3159 3160 3161 3161 3161 3162 3163 3163 3164 3164 3165 3165 3166 3166 3166 3167 3168 3168 3169 3169 3169 3170 3170 3171 3171 3171 3171 3172 3172 3172 3173 3173 3174 3174 3174 3175 3175 3175 3175 3176 3176 3176 3176 3176 3177 3177
3091 3093 3095 3096 3098 3100 3102 3103 3105 3106 3107 3109 3110 3112 3113 3115 3115 3116 3118 3119 3120 3121 3122 3124 3125 3127 3128 3130 3131 3132 3134 3135 3137 3138 3140 3141 3142 3143 3145 3146 3146 3147 3148 3149 3150 3150 3151 3152 3153 3154 3155 3156 3157 3157 3157 3157 3158 3159 3159 3160 3160 3161 3161 3162 3162 3163 3163 3164 3165 3165 3166 3166 3166 3167 3167 3168 3168 3169 3169 3170 3170 3170 3171 3171 3171 3171 3172 3172 3172 3173 3173 3174 3174 3174 3174 3175 3175 3175 3175 3176 3176 3176 3176
3089 3092 3093 3095 3096 3098 3100 3102 3104 3105 3106 3108 3109 3110 3111 3113 3114 3115 3117 3118 3118 3120 3121 3123 3124 3126 3127 3129 3130 3131 3133 3134 3136 3137 3138 3140 3141 3142 3143 3145 3145 3146 3147 3147 3148 3149 3150 3151 3152 3153 3154 3156 3156 3156 3156 3157 3157 3158 3158 3159 3160 3160 3161 3161 3162 3162 3163 3163 3164 3164 3165 3165 3166 3166 3167 3167 3168 3168 3168 3169 3169 3169 3170 3170 3170 3171 3171 3171 3172 3172 3172 3173 3173 3173 3174 3174 3174 3175 3175 3175 3175 3175 3176
3088 3091 3092 3094 3096 3097 3099 3101 3102 3104 3105 3106 3108 3109 3110 3111 3112 3114 3116 3116 3117 3119 3120 3122 3123 3125 3126 3127 3129 3130 3131 3133 3134 3136 3137 3139 3140 3141 3142 3143 3144 3145 3146 3146 3147 3148 3149 3150 3151 3152 3153 3155 3155 3155 3156 3156 3156 3157 3158 3158 3159 3159 3160 3161 3161 3161 3162 3163 3163 3164 3164 3165 3165 3166 3166 3166 3167 3167 3167 3168 3168 3169 3169 3169 3170 3170 3170 3171 3171 3171 3171 3172 3172 3173 3173 3173 3173 3174 3174 3174 3175 3175 3175
3088 3090 3092 3093 3095 3096 3097 3099 3101 3102 3104 3105 3106 3108 3109 3110 3111 3113 3114 3116 3116 3118 3119 3121 3122 3124 3125 3126 3127 3129 3130 3131 3133 3134 3136 3137 3139 3140 3141 3142 3143 3143 3144 3145 3146 3147 3148 3149 3150 3151 3152 3154 3154 3154 3155 3155 3156 3156 3157 3157 3158 3159 3159 3160 3160 3161 3161 3162 3162 3163 3163 3164 3164 3165 3165 3166 3166 3166 3167 3167 3167 3168 3168 3168 3169 3169 3169 3170 3170 3170 3171 3171 3171 3172 3172 3172 3173 3173 3174 3174 3174 3174 3174
3087 3089 3091 3092 3094 3095 3096 3098 3100 3101 3103 3104 3105 3106 3108 3109 3110 3111 3114 3115 3116 3117 3118 3120 3121 3123 3124 3125 3126 3127 3129 3130 3131 3133 3134 3136 3137 3139 3140 3141 3141 3142 3143 3144 3145 3146 3146 3148 3148 3149 3151 3153 3153 3153 3154 3154 3155 3156 3156 3156 3157 3158 3158 3159 3160 3160 3161 3161 3161 3162 3162 3163 3163 3164 3164 3165 3165 3165 3166 3166 3166 3167 3167 3167 3168 3168 3168 3169 3169 3170 3170 3170 3171 3171 3171 3172 3172 3173 3173 3173 3173 3173 3173
3087 3089 3090 3091 3093 3094 3095 3097 3099 3101 3101 3103 3104 3105 3106 3108 3109 3110 3113 3114 3115 3116 3117 3119 3120 3121 3123 3124 3125 3126 3127 3129 3130 3131 3133 3134 3136 3137 3139 3140 3140 3141 3142 3142 3144 3145 3145 3146 3147 3148 3149 3151 3152 3152 3153 3153 3154 3155 3155 3156 3156 3157 3157 3158 3159 3159 3160 3160 3161 3161 3161 3162 3162 3163 3163 3164 3164 3164 3165 3165 3166 3166 3166 3166 3167 3167 3167 3168 3168 3169 3169 3169 3170 3170 3171 3171 3171 3172 3172 3172 3172 3172 3173
3087 3089 3089 3090 3091 3093 3094 3096 3097 3099 3100 3101 3103 3104 3105 3106 3108 3109 3111 3112 3113 3114 3116 3117 3119 3120 3121 3123 3124 3125 3126 3127 3129 3130 3131 3133 3135 3136 3137 3138 3139 3140 3141 3141 3142 3143 3144 3145 3146 3146 3148 3150 3151 3151 3152 3152 3153 3153 3154 3155 3155 3156 3156 3157 3158 3158 3159 3159 3160 3160 3161 3161 3161 3162 3162 3163 3163 3163 3164 3164 3165 3165 3165 3166 3166 3166 3166 3167 3167 3168 3168 3168 3169 3169 3170 3170 3171 3171 3171 3171 3171 3171 3172
3084 3088 3088 3089 3090 3091 3092 3094 3096 3098 3099 3100 3101 3102 3104 3105 3106 3108 3109 3110 3112 3113 3115 3116 3117 3119 3120 3121 3122 3123 3125 3126 3127 3129 3130 3132 3133 3135 3136 3137 3138 3138 3139 3140 3141 3142 3143 3144 3144 3145 3146 3149 3150 3150 3151 3151 3152 3152 3153 3154 3154 3155 3156 3156 3157 3157 3158 3158 3159 3159 3160 3160 3161 3161 3161 3162 3162 3163 3163 3163 3164 3164 3164 3165 3165 3165 3166 3166 3166 3167 3167 3167 3168 3168 3168 3169 3169 3170 3170 3170 3170 3171 3171
3078 3085 3088 3089 3089 3090 3091 3093 3095 3096 3097 3099 3100 3101 3102 3104 3105 3106 3108 3109 3111 3112 3114 3115 3116 3117 3119 3120 3121 3122 3123 3124 3126 3127 3129 3131 3132 3133 3135 3136 3136 3137 3138 3139 3140 3141 3141 3142 3143 3143 3145 3148 3149 3149 3149 3150 3151 3151 3152 3153 3153 3154 3155 3155 3156 3156 3157 3157 3158 3158 3159 3159 3160 3160 3161 3161 3161 3162 3162 3162 3163 3163 3163 3164 3164 3164 3165 3165 3165 3166 3166 3166 3167 3167 3167 3168 3168 3169 3169 3169 3169 3170 3170
3073 3080 3086 3088 3088 3088 3089 3091 3093 3095 3096 3097 3098 3099 3101 3103 3104 3105 3106 3107 3109 3111 3112 3113 3115 3116 3118 3119 3120 3121 3122 3123 3124 3126 3128 3129 3131 3132 3133 3134 3135 3136 3137 3138 3138 3139 3140 3141 3141 3142 3144 3146 3148 3148 3148 3149 3150 3150 3151 3151 3152 3153 3154 3154 3155 3155 3156 3156 3157 3157 3158 3158 3159 3159 3160 3160 3161 3161 3161 3161 3162 3162 3162 3163 3163 3163 3164 3164 3164 3165 3165 3166 3166 3166 3166 3167 3167 3167 3168 3168 3168 3168 3169
3071 3076 3081 3087 3087 3086 3087 3089 3092 3094 3095 3096 3097 3098 3100 3101 3103 3104 3106 3106 3108 3109 3111 3112 3114 3116 3117 3118 3119 3120 3121 3122 3123 3125 3126 3128 3129 3131 3132 3133 3134 3135 3136 3136 3137 3138 3138 3139 3140 3141 3142 3145 3146 3147 3147 3148 3148 3149 3150 3151 3151 3152 3152 3153 3154 3154 3155 3156 3156 3156 3157 3157 3158 3158 3159 3159 3160 3160 3160 3161 3161 3161 3161 3162 3162 3162 3163 3163 3163 3164 3164 3165 3165 3165 3166 3166 3166 3166 3167 3167 3167 3167 3168
3067 3071 3078 3086 3088 3086 3085 3087 3090 3092 3094 3095 3096 3097 3098 3099 3101 3102 3104 3106 3107 3108 3110 3111 3113 3115 3116 3117 3118 3119 3120 3121 3122 3123 3125 3126 3128 3129 3131 3131 3132 3133 3134 3135 3136 3136 3137 3138 3138 3139 3141 3143 3145 3146 3146 3146 3147 3148 3149 3149 3150 3151 3151 3152 3152 3153 3154 3154 3155 3156 3156 3156 3157 3157 3158 3158 3159 3159 3159 3160 3160 3160 3161 3161 3161 3161 3162 3162 3162 3163 3163 3164 3164 3164 3165 3165 3165 3165 3166 3166 3166 3166 3166
3065 3067 3072 3082 3087 3087 3085 3086 3088 3091 3092 3094 3095 3096 3096 3097 3098 3100 3102 3104 3106 3107 3109 3111 3112 3113 3114 3116 3116 3117 3118 3119 3121 3122 3124 3125 3126 3128 3129 3130 3131 3132 3133 3133 3134 3135 3136 3136 3137 3137 3139 3142 3144 3145 3145 3145 3146 3147 3147 3148 3149 3149 3150 3151 3151 3152 3152 3153 3154 3154 3155 3155 3156 3156 3156 3157 3158 3158 3158 3159 3159 3159 3160 3160 3160 3160 3161 3161 3161 3162 3162 3163 3163 3163 3164 3164 3164 3164 3165 3165 3165 3166 3166
3064 3064 3068 3077 3083 3085 3085 3085 3087 3089 3091 3092 3094 3095 3096 3096 3096 3098 3100 3102 3104 3106 3107 3109 3110 3111 3112 3113 3115 3116 3117 3118 3120 3121 3122 3124 3125 3126 3127 3129 3130 3131 3131 3132 3133 3134 3134 3135 3135 3136 3138 3140 3142 3143 3143 3144 3145 3145 3146 3146 3147 3148 3149 3149 3150 3151 3151 3152 3152 3153 3154 3154 3155 3155 3156 3156 3156 3157 3157 3158 3158 3158 3158 3159 3159 3159 3160 3160 3161 3161 3161 3161 3162 3162 3162 3163 3163 3163 3163 3164 3164 3165 3165
3063 3063 3065 3073 3079 3082 3083 3085 3086 3087 3089 3091 3092 3093 3094 3094 3095 3097 3098 3101 3102 3104 3105 3107 3108 3110 3111 3112 3113 3115 3116 3117 3118 3120 3121 3122 3123 3125 3126 3127 3128 3129 3130 3131 3131 3132 3133 3133 3133 3134 3136 3139 3141 3142 3142 3143 3143 3144 3145 3145 3146 3146 3147 3148 3149 3149 3150 3151 3151 3152 3152 3153 3153 3154 3154 3155 3155 3156 3156 3157 3157 3157 3157 3158 3158 3159 3159 3159 3160 3160 3160 3161 3161 3161 3161 3162 3162 3162 3162 3163 3163 3163 3164
3063 3064 3065 3070 3076 3080 3081 3084 3085 3086 3087 3089 3091 3091 3092 3092 3094 3096 3097 3099 3101 3102 3103 3105 3106 3108 3110 3111 3112 3114 3115 3116 3117 3119 3120 3121 3121 3122 3124 3125 3126 3127 3128 3129 3130 3130 3131 3131 3131 3133 3135 3137 3140 3141 3141 3141 3142 3142 3143 3144 3144 3145 3146 3146 3147 3148 3149 3149 3150 3151 3151 3151 3152 3152 3153 3153 3154 3155 3155 3156 3156 3156 3156 3157 3157 3158 3158 3158 3159 3159 3159 3160 3160 3160 3160 3161 3161 3161 3161 3161 3162 3162 3162
3063 3064 3066 3067 3073 3078 3080 3083 3085 3085 3086 3087 3089 3090 3091 3091 3093 3096 3096 3098 3100 3101 3102 3103 3105 3106 3108 3109 3111 3112 3113 3115 3116 3117 3118 3119 3120 3121 3121 3123 3124 3125 3126 3127 3128 3128 3129 3129 3130 3131 3133 3136 3138 3140 3140 3140 3141 3141 3141 3142 3143 3143 3144 3145 3146 3146 3147 3148 3149 3149 3150 3150 3151 3151 3151 3152 3153 3153 3154 3154 3155 3155 3155 3156 3156 3157 3157 3157 3157 3158 3158 3158 3159 3159 3159 3159 3160 3160 3160 3161 3161 3161 3161
3064 3065 3067 3067 3070 3074 3078 3082 3083 3083 3084 3086 3087 3088 3089 3090 3092 3094 3096 3097 3099 3100 3101 3102 3103 3104 3106 3108 3109 3111 3112 3113 3114 3116 3117 3117 3118 3119 3120 3121 3122 3124 3125 3126 3126 3127 3127 3128 3129 3130 3132 3135 3137 3139 3139 3139 3139 3139 3140 3140 3141 3142 3143 3144 3144 3145 3146 3146 3147 3148 3148 3149 3149 3150 3150 3151 3151 3152 3152 3153 3153 3154 3154 3155 3155 3156 3156 3156 3156 3156 3157 3157 3158 3158 3158 3158 3159 3159 3159 3159 3160 3160 3160
3065 3066 3067 3067 3067 3069 3075 3078 3080 3081 3082 3084 3086 3087 3088 3089 3091 3092 3094 3096 3097 3098 3099 3100 3101 3103 3104 3106 3107 3109 3110 3111 3113 3114 3115 3116 3117 3118 3119 3120 3121 3122 3123 3124 3125 3125 3126 3127 3128 3129 3131 3133 3135 3137 3137 3137 3137 3137 3138 3138 3139 3140 3141 3142 3143 3144 3145 3145 3146 3146 3147 3147 3148 3148 3148 3149 3150 3150 3151 3151 3152 3152 3153 3153 3154 3154 3155 3155 3155 3155 3156 3156 3156 3157 3157 3157 3157 3158 3158 3158 3159 3159 3159
3065 3066 3067 3068 3067 3067 3070 3074 3077 3079 3080 3081 3083 3085 3086 3087 3088 3091 3092 3094 3095 3096 3097 3098 3100 3101 3102 3104 3106 3107 3108 3110 3111 3113 3114 3115 3116 3117 3118 3119 3120 3121 3122 3122 3123 3124 3125 3126 3127 3128 3130 3131 3133 3135 3135 3136 3136 3136 3136 3136 3137 3138 3140 3141 3141 3142 3143 3144 3144 3145 3145 3146 3146 3146 3147 3147 3148 3149 3150 3150 3151 3151 3151 3152 3152 3153 3153 3153 3153 3154 3154 3155 3155 3156 3156 3156 3156 3156 3157 3157 3157 3158 3158
3065 3066 3066 3067 3068 3068 3069 3072 3075 3077 3079 3080 3081 3082 3084 3085 3086 3088 3090 3092 3093 3094 3095 3096 3097 3099 3100 3102 3103 3105 3106 3108 3110 3111 3112 3113 3114 3116 3116 3117 3118 3119 3120 3121 3121 3122 3124 3125 3126 3127 3128 3130 3131 3132 3133 3133 3134 3134 3134 3135 3136 3137 3138 3139 3140 3141 3141 3142 3143 3143 3144 3144 3145 3145 3146 3146 3147 3147 3148 3148 3149 3149 3150 3150 3151 3151 3151 3152 3152 3152 3153 3153 3154 3154 3154 3155 3155 3155 3156 3156 3156 3156 3156
3064 3065 3066 3066 3067 3068 3069 3071 3074 3076 3078 3079 3080 3081 3082 3083 3085 3086 3088 3090 3091 3091 3093 3094 3096 3097 3099 3100 3102 3103 3105 3106 3108 3109 3111 3112 3113 3114 3115 3116 3116 3117 3118 3119 3120 3121 3122 3123 3125 3126 3127 3127 3128 3129 3130 3131 3132 3132 3133 3134 3135 3136 3136 3137 3138 3139 3140 3141 3141 3142 3142 3142 3143 3143 3144 3145 3145 3146 3146 3147 3147 3147 3148 3149 3149 3150 3150 3150 3150 3151 3151 3151 3152 3153 3153 3153 3153 3154 3154 3154 3155 3155 3155
3063 3064 3066 3066 3066 3067 3069 3071 3073 3076 3077 3079 3079 3080 3081 3082 3084 3085 3086 3087 3088 3089 3091 3092 3093 3095 3097 3099 3100 3101 3103 3104 3106 3107 3109 3110 3111 3112 3113 3114 3115 3116 3116 3117 3118 3119 3121 3122 3123 3124 3125 3125 3126 3127 3128 3129 3130 3131 3132 3132 3133 3134 3135 3135 3136 3137 3139 3140 3140 3140 3141 3141 3141 3142 3142 3143 3144 3145 3145 3145 3146 3146 3146 3147 3148 3148 3148 3148 3148 3149 3149 3150 3150 3151 3151 3151 3152 3152 3152 3153 3153 3153 3153
3062 3063 3065 3066 3066 3066 3067 3068 3070 3072 3075 3077 3078 3079 3080 3081 3083 3084 3085 3085 3086 3087 3089 3090 3092 3094 3096 3097 3098 3100 3101 3102 3104 3105 3106 3108 3109 3110 3111 3111 3112 3113 3114 3116 3116 3118 3119 3120 3121 3121 3122 3123 3123 3124 3125 3126 3128 3129 3131 3131 3132 3132 3133 3133 3134 3136 3137 3138 3139 3139 3139 3139 3140 3140 3141 3142 3142 3143 3143 3144 3144 3144 3145 3146 3146 3146 3146 3146 3146 3147 3148 3148 3148 3149 3150 3150 3150 3150 3150 3151 3151 3151 3152
3061 3062 3063 3064 3065 3066 3066 3066 3068 3069 3071 3074 3075 3076 3078 3080 3081 3083 3083 3084 3085 3086 3087 3089 3090 3092 3094 3095 3096 3097 3098 3100 3101 3103 3104 3105 3106 3107 3108 3109 3110 3111 3112 3114 3115 3116 3117 3118 3118 3119 3120 3120 3121 3122 3123 3125 3126 3128 3129 3130 3130 3131 3131 3131 3132 3134 3135 3136 3137 3137 3137 3137 3138 3139 3140 3141 3141 3141 3142 3142 3142 3143 3143 3144 3144 3145 3145 3145 3145 3145 3146 3146 3147 3147 3148 3149 3148 3148 3148 3148 3149 3149 3150
3060 3060 3061 3062 3063 3064 3065 3066 3066 3067 3069 3070 3071 3073 3075 3078 3080 3081 3082 3083 3083 3085 3086 3088 3089 3090 3092 3093 3094 3095 3096 3098 3099 3100 3101 3103 3104 3105 3106 3107 3108 3110 3111 3112 3113 3113 3114 3115 3116 3116 3117 3118 3119 3120 3121 3123 3125 3126 3127 3128 3128 3129 3129 3130 3131 3131 3133 3135 3136 3136 3136 3136 3136 3137 3138 3139 3140 3140 3140 3141 3141 3141 3141 3142 3143 3143 3143 3143 3143 3144 3144 3144 3145 3145 3146 3147 3147 3147 3146 3146 3147 3147 3148
3058 3059 3059 3060 3061 3062 3063 3064 3065 3066 3067 3068 3068 3070 3072 3075 3077 3079 3080 3081 3082 3083 3085 3086 3087 3088 3090 3091 3092 3093 3095 3096 3097 3098 3099 3100 3102 3103 3104 3106 3106 3108 3109 3110 3111 3111 3112 3113 3113 3114 3115 3116 3117 3118 3120 3121 3123 3124 3125 3126 3126 3127 3127 3128 3129 3130 3131 3132 3133 3134 3134 3134 3135 3136 3137 3137 3138 3138 3139 3139 3139 3140 3140 3141 3141 3141 3141 3141 3141 3142 3142 3143 3143 3143 3144 3144 3145 3145 3145 3145 3145 3146 3146
3056 3057 3058 3058 3059 3060 3061 3062 3063 3065 3066 3066 3067 3068 3070 3071 3073 3075 3077 3078 3079 3081 3082 3084 3085 3086 3088 3089 3090 3091 3092 3093 3094 3095 3097 3098 3100 3101 3102 3103 3105 3106 3107 3108 3108 3109 3110 3110 3111 3111 3112 3114 3115 3117 3118 3120 3121 3122 3123 3124 3125 3125 3126 3126 3127 3128 3129 3130 3131 3131 3132 3132 3133 3134 3135 3136 3136 3137 3137 3137 3138 3138 3138 3139 3139 3139 3139 3139 3139 3140 3140 3141 3141 3141 3141 3141 3142 3143 3143 3143 3144 3144 3144
3054 3055 3056 3056 3057 3058 3059 3060 3061 3063 3064 3065 3066 3067 3068 3069 3070 3071 3074 3076 3077 3079 3081 3082 3083 3085 3086 3087 3088 3089 3090 3091 3091 3093 3095 3096 3098 3100 3101 3102 3103 3104 3104 3105 3106 3107 3108 3108 3109 3109 3111 3112 3113 3115 3116 3118 3119 3120 3121 3121 3122 3123 3124 3124 3125 3126 3127 3128 3129 3129 3130 3131 3131 3132 3133 3134 3135 3135 3136 3136 3136 3136 3137 3137 3137 3138 3138 3137 3137 3137 3137 3138 3139 3139 3139 3139 3140 3140 3141 3141 3142 3142 3142
3052 3053 3054 3055 3056 3056 3057 3058 3059 3061 3062 3064 3065 3065 3066 3068 3069 3070 3072 3074 3076 3077 3079 3081 3082 3083 3084 3085 3086 3087 3087 3088 3089 3091 3093 3095 3096 3097 3098 3100 3100 3101 3101 3102 3103 3104 3105 3106 3106 3107 3109 3110 3112 3113 3115 3116 3117 3117 3118 3119 3120 3121 3121 3122 3123 3124 3125 3126 3127 3127 3128 3129 3129 3130 3131 3132 3133 3134 3134 3134 3135 3135 3135 3135 3135 3136 3136 3136 3135 3135 3135 3136 3136 3137 3137 3137 3138 3138 3139 3140 3140 3141 3141
3050 3051 3052 3053 3055 3055 3055 3056 3057 3059 3061 3062 3063 3064 3065 3066 3068 3069 3070 3071 3073 3075 3077 3078 3080 3081 3081 3083 3083 3084 3085 3086 3087 3089 3091 3091 3093 3094 3095 3096 3097 3099 3100 3101 3101 3101 3102 3103 3104 3105 3106 3108 3110 3111 3112 3114 3114 3115 3116 3117 3118 3119 3120 3121 3122 3123 3124 3124 3125 3125 3126 3127 3127 3128 3129 3130 3131 3131 3132 3132 3133 3133 3133 3133 3133 3134 3134 3134 3134 3133 3133 3133 3134 3134 3135 3135 3136 3136 3137 3138 3139 3139 3139
3048 3049 3050 3051 3052 3054 3054 3055 3056 3057 3059 3060 3062 3063 3064 3065 3066 3067 3067 3068 3070 3071 3073 3075 3076 3078 3079 3080 3081 3082 3082 3084 3085 3087 3088 3089 3090 3091 3093 3095 3097 3097 3097 3098 3098 3098 3099 3101 3102 3104 3105 3106 3108 3109 3111 3111 3112 3113 3114 3115 3116 3116 3118 3119 3120 3121 3121 3122 3123 3124 3124 3125 3125 3126 3127 3128 3128 3129 3129 3130 3131 3131 3132 3131 3131 3132 3132 3132 3132 3132 3131 3131 3132 3132 3133 3133 3134 3135 3135 3136 3137 3137 3137
3046 3047 3048 3049 3050 3051 3053 3053 3054 3055 3057 3058 3060 3061 3063 3064 3065 3065 3066 3066 3066 3068 3069 3071 3072 3074 3076 3077 3078 3080 3081 3082 3083 3085 3086 3086 3088 3090 3092 3094 3094 3094 3093 3094 3095 3096 3099 3100 3101 3102 3103 3105 3106 3107 3108 3109 3110 3111 3111 3112 3113 3115 3116 3117 3118 3119 3120 3120 3121 3122 3122 3123 3123 3124 3125 3126 3126 3126 3127 3127 3128 3129 3130 3130 3129 3130 3130 3131 3131 3131 3130 3130 3130 3130 3131 3131 3132 3133 3133 3134 3135 3136 3136
3045 3045 3046 3047 3049 3050 3051 3052 3053 3053 3055 3056 3057 3059 3062 3063 3064 3065 3065 3065 3065 3065 3066 3068 3070 3072 3074 3075 3076 3077 3079 3080 3081 3082 3084 3085 3086 3088 3090 3091 3091 3091 3091 3092 3095 3097 3098 3098 3099 3101 3101 3103 3104 3105 3106 3107 3108 3109 3110 3111 3111 3113 3114 3116 3116 3117 3117 3118 3119 3120 3121 3121 3121 3122 3123 3124 3124 3125 3125 3126 3126 3127 3127 3127 3127 3127 3128 3128 3129 3129 3129 3128 3128 3128 3129 3129 3130 3131 3131 3132 3133 3133 3134
3044 3044 3045 3046 3047 3048 3049 3051 3051 3052 3053 3054 3056 3057 3060 3062 3063 3064 3064 3064 3064 3065 3066 3067 3068 3069 3071 3071 3072 3074 3076 3077 3079 3080 3082 3083 3084 3086 3087 3088 3089 3090 3091 3093 3096 3097 3096 3096 3097 3098 3099 3101 3102 3103 3105 3105 3106 3106 3108 3108 3110 3111 3112 3113 3114 3115 3115 3116 3117 3118 3119 3119 3120 3120 3121 3121 3122 3123 3123 3124 3124 3125 3125 3125 3125 3125 3126 3126 3126 3126 3127 3127 3126 3126 3127 3127 3128 3129 3130 3131 3131 3132 3132
3043 3043 3044 3045 3046 3047 3049 3050 3051 3051 3052 3054 3055 3056 3057 3060 3061 3062 3064 3064 3065 3066 3066 3067 3067 3068 3069 3069 3070 3071 3073 3075 3077 3079 3080 3081 3082 3083 3085 3086 3088 3089 3090 3091 3093 3094 3093 3093 3094 3096 3097 3099 3100 3101 3102 3103 3103 3104 3106 3106 3108 3109 3111 3111 3112 3112 3113 3114 3116 3117 3117 3117 3118 3118 3119 3119 3120 3120 3121 3121 3122 3122 3123 3123 3123 3123 3124 3124 3124 3124 3125 3125 3125 3125 3125 3126 3126 3127 3128 3129 3129 3130 3130
3043 3043 3043 3043 3044 3046 3048 3049 3051 3051 3052 3053 3054 3055 3056 3057 3059 3060 3062 3063 3064 3065 3065 3066 3067 3068 3069 3069 3068 3068 3070 3073 3075 3077 3078 3079 3080 3081 3083 3085 3086 3087 3088 3089 3090 3091 3090 3091 3092 3094 3095 3096 3098 3099 3100 3101 3101 3102 3104 3105 3106 3107 3109 3110 3110 3111 3111 3112 3113 3115 3115 3116 3116 3116 3116 3117 3117 3118 3118 3119 3120 3120 3120 3121 3121 3121 3121 3122 3122 3122 3122 3122 3122 3123 3123 3124 3124 3125 3126 3127 3127 3128 3128
3044 3044 3043 3043 3044 3045 3046 3048 3050 3051 3052 3052 3053 3054 3055 3056 3057 3058 3060 3061 3062 3063 3064 3065 3066 3067 3067 3068 3067 3066 3067 3070 3073 3075 3076 3077 3078 3080 3082 3083 3084 3085 3086 3087 3088 3089 3089 3090 3091 3092 3093 3094 3096 3097 3098 3098 3099 3101 3101 3102 3104 3105 3106 3107 3108 3109 3109 3110 3111 3112 3113 3113 3114 3114 3114 3114 3115 3116 3116 3116 3117 3118 3118 3118 3119 3119 3119 3120 3120 3119 3119 3119 3120 3120 3121 3122 3122 3123 3124 3125 3126 3126 3126